Date,TemperatureHighF,TemperatureAvgF,TemperatureLowF,DewpointHighF,DewpointAvgF,DewpointLowF,HumidityHigh,HumidityAvg,HumidityLow,PressureMaxIn,PressureMinIn,WindSpeedMaxMPH,WindSpeedAvgMPH,GustSpeedMaxMPH,PrecipitationSumIn
2014-1-1,37,18,9,25,11,1,81,75,62,30.44,29.96,30,11,30,0.00
2014-1-2,25,15,6,13,7,0,80,70,58,30.49,30.39,16,5,16,0.00
2014-1-3,43,31,12,27,19,6,78,62,50,30.40,29.63,37,14,37,0.00
2014-1-4,38,27,18,27,19,13,86,71,54,30.13,29.60,36,11,36,0.00
2014-1-5,18,11,2,13,-4,-14,82,50,39,30.65,30.09,30,13,30,0.00
2014-1-6,16,5,-4,-2,-13,-22,62,43,28,30.69,30.39,21,6,21,0.00
2014-1-7,40,26,9,24,14,-2,76,62,45,30.39,30.08,17,6,24,0.00
2014-1-8,30,26,18,22,17,12,78,68,59,30.33,30.11,23,8,23,0.00
2014-1-9,34,26,15,30,21,11,88,81,75,30.32,29.92,22,5,22,0.00
2014-1-10,40,36,34,35,33,30,93,88,76,29.92,29.54,19,5,19,0.13
2014-1-11,53,40,31,33,28,23,85,63,38,29.92,29.69,19,6,19,0.01
2014-1-12,42,41,39,27,26,25,62,55,52,29.76,29.64,24,11,24,0.00
2014-1-16,50,40,30,15,12,8,46,33,18,30.15,29.89,45,17,45,0.00
2014-1-17,43,32,24,18,13,7,66,47,27,30.24,29.92,29,8,29,0.00
2014-1-18,50,41,30,25,21,16,68,45,31,30.13,29.82,47,11,47,0.00
2014-1-19,68,45,27,25,22,19,75,46,17,30.11,29.79,16,6,24,0.00
2014-1-20,54,39,19,26,19,2,69,46,23,30.42,29.80,36,10,36,0.00
2014-1-21,30,19,7,10,-2,-10,55,41,21,30.51,30.09,31,8,31,0.00
2014-1-22,42,28,10,21,10,-11,69,49,30,30.56,30.13,36,10,36,0.00
2014-1-23,20,10,4,-8,-11,-14,47,37,24,30.89,30.55,29,9,29,0.00
2014-1-24,54,32,11,24,8,-8,55,38,21,30.69,29.87,32,9,32,0.00
2014-1-25,55,47,42,32,27,22,59,46,32,30.03,29.72,30,7,30,0.00
2014-1-26,61,45,20,31,22,-11,72,41,23,30.27,29.63,53,11,55,0.00
2014-1-27,20,14,10,-7,-12,-16,38,29,22,30.52,30.27,36,10,36,0.00
2014-1-28,27,18,9,8,-2,-8,61,42,26,30.52,30.30,19,5,19,0.00
2014-1-29,48,30,12,14,7,-2,75,42,21,30.30,29.71,35,10,35,0.00
2014-1-30,47,37,29,23,14,5,52,39,27,29.96,29.50,37,12,37,0.00
2014-1-31,29,24,20,19,14,10,87,67,53,30.05,29.89,25,9,25,0.00
2014-2-1,29,23,19,20,16,10,87,75,64,30.30,29.86,23,8,23,0.00
2014-2-2,24,16,9,10,5,2,74,62,43,30.44,30.30,13,3,13,0.01
2014-2-3,36,24,11,20,10,4,78,58,30,30.32,30.11,18,6,22,0.01
2014-2-4,31,22,9,24,18,4,91,86,63,30.36,29.99,33,12,33,0.01
2014-2-5,10,6,3,4,-4,-7,78,62,49,30.74,30.35,30,11,30,0.00
2014-2-6,11,6,2,-5,-8,-12,62,52,38,30.73,30.48,14,3,14,0.00
2014-2-7,16,11,6,11,1,-6,80,64,53,30.48,30.18,15,6,15,0.00
2014-2-8,28,24,16,22,18,11,88,80,75,30.22,30.03,18,5,18,0.00
2014-2-9,26,18,12,22,11,4,86,72,63,30.46,30.18,25,9,25,0.00
2014-2-10,15,13,10,6,3,0,80,65,55,30.53,30.43,15,6,16,0.00
2014-2-11,23,15,11,7,4,2,69,60,45,30.50,30.20,19,6,19,0.00
2014-2-12,36,27,16,26,19,6,81,71,62,30.21,29.92,25,7,25,0.00
2014-2-13,53,38,28,33,27,21,82,65,41,29.94,29.65,13,5,14,0.00
2014-2-14,53,40,30,35,29,23,78,63,47,30.06,29.57,18,8,27,0.00
2014-2-15,58,40,29,35,27,22,80,62,38,30.05,29.83,29,9,29,0.00
2014-2-16,53,41,31,34,29,25,79,64,45,30.08,29.70,25,8,25,0.00
2014-2-17,62,48,36,33,26,14,79,46,16,30.03,29.70,36,9,36,0.00
2014-2-18,72,54,42,28,24,17,52,34,13,29.95,29.67,30,9,30,0.00
2014-2-19,57,46,34,33,27,18,75,50,25,29.95,29.43,24,6,24,0.00
2014-2-20,50,42,34,40,27,11,91,60,21,29.90,29.30,45,13,45,0.08
2014-2-21,59,43,28,22,18,13,69,42,18,29.91,29.79,29,7,29,0.00
2014-2-22,55,40,29,29,24,20,75,54,27,30.05,29.83,25,8,25,0.00
2014-2-23,32,29,24,22,16,7,75,58,36,30.35,30.05,27,10,27,0.00
2014-2-24,44,31,23,21,15,10,66,52,33,30.34,30.05,24,7,24,0.00
2014-2-25,28,20,16,17,11,2,82,68,44,30.55,30.27,24,10,24,0.00
2014-2-26,38,21,5,18,9,-1,81,60,42,30.54,30.04,21,5,21,0.00
2014-2-27,43,29,19,16,13,8,75,52,27,30.12,29.76,27,10,27,0.00
2014-2-28,51,38,26,32,21,10,72,50,42,30.06,29.65,20,10,28,0.00
2014-3-1,26,16,5,17,9,-2,84,75,68,30.48,30.03,30,14,30,0.00
2014-3-2,8,5,2,-2,-8,-13,73,54,40,30.63,30.41,30,13,30,0.00
2014-3-3,20,10,-1,-1,-8,-14,58,44,30,30.64,30.22,24,7,24,0.00
2014-3-4,36,25,13,23,11,-5,66,55,42,30.23,29.95,23,8,23,0.00
2014-3-5,33,30,27,25,23,19,85,74,58,30.28,30.01,20,6,20,0.00
2014-3-6,43,34,26,34,29,24,92,82,66,30.26,29.84,21,8,26,0.00
2014-3-7,57,42,32,36,32,20,81,68,44,30.10,29.75,36,10,36,0.00
2014-3-8,43,33,27,22,16,11,73,51,27,30.33,30.10,28,9,28,0.00
2014-3-9,68,47,25,33,23,15,68,44,18,30.31,29.88,31,9,33,0.00
2014-3-10,80,60,41,32,27,22,52,31,13,29.88,29.55,22,5,23,0.00
2014-3-11,63,52,47,44,35,26,72,52,31,29.55,29.35,22,8,22,0.00
2014-3-12,57,51,42,30,23,21,54,33,24,30.22,30.10,24,9,28,0.01
2014-3-13,71,52,32,26,19,9,64,32,10,30.10,29.66,33,8,33,0.00
2014-3-14,65,56,46,26,18,12,42,24,13,29.94,29.65,32,8,33,0.00
2014-3-15,75,54,39,30,24,17,58,32,15,30.00,29.66,42,9,42,0.00
2014-3-16,44,36,29,26,17,10,75,48,27,30.27,30.00,40,14,40,0.00
2014-3-17,62,44,27,29,21,12,61,41,25,30.06,29.37,34,12,34,0.00
2014-3-18,58,47,35,31,29,25,86,50,33,29.83,29.26,38,12,38,0.00
2014-3-19,69,46,30,30,26,2,81,50,24,30.17,29.83,32,8,32,0.00
2014-3-20,73,54,35,25,18,10,57,30,9,30.06,29.75,26,6,26,0.00
2014-3-21,62,54,42,30,25,15,61,34,19,30.15,29.63,32,12,32,0.00
2014-3-22,42,34,26,29,15,2,70,49,21,30.50,30.15,31,13,31,0.00
2014-3-23,44,31,18,19,13,6,80,52,26,30.54,30.22,20,7,21,0.00
2014-3-24,48,36,28,34,19,14,89,52,27,30.27,30.18,30,7,30,0.02
2014-3-25,68,40,29,27,14,-7,84,39,17,30.44,30.10,22,6,22,0.00
2014-3-26,68,45,32,42,30,-7,92,60,16,30.10,29.50,58,19,58,0.00
2014-3-27,63,52,38,51,40,28,83,65,47,29.84,29.26,32,15,44,0.00
2014-3-28,54,40,30,34,29,23,78,64,44,30.13,29.84,16,4,16,0.00
2014-3-29,63,46,28,33,28,23,83,55,25,30.31,30.03,21,6,22,0.00
2014-3-30,75,63,50,38,32,28,48,33,22,30.03,29.54,47,19,48,0.00
2014-3-31,70,60,38,43,30,19,51,34,15,29.98,29.39,40,18,47,0.00
2014-4-1,54,41,31,26,23,20,67,49,29,30.08,29.88,25,6,25,0.00
2014-4-2,46,44,42,44,38,26,94,81,48,29.92,29.60,26,10,26,0.03
2014-4-3,45,42,36,44,39,32,94,90,81,29.92,29.58,29,10,29,0.04
2014-4-4,51,41,35,32,27,23,85,59,34,30.16,29.92,30,9,30,0.00
2014-4-5,66,50,35,32,27,23,72,45,20,30.10,29.90,29,10,29,0.00
2014-4-6,58,53,49,44,38,27,75,57,33,29.95,29.75,23,5,23,0.00
2014-4-7,61,50,44,45,41,35,88,71,41,29.94,29.72,27,6,27,0.09
2014-4-8,63,51,39,36,24,7,78,42,13,30.07,29.94,35,10,35,0.00
2014-4-9,88,63,40,40,28,16,45,28,12,30.05,29.61,39,11,39,0.00
2014-4-10,70,63,55,41,32,24,51,32,20,29.92,29.55,33,12,33,0.00
2014-4-11,80,63,48,51,32,23,58,33,19,29.99,29.72,21,6,21,0.00
2014-4-12,90,73,61,59,56,48,84,58,24,29.73,29.35,38,14,38,0.00
2014-4-13,71,53,34,59,46,27,86,76,62,29.91,29.30,38,14,43,0.01
2014-4-14,49,39,31,28,16,6,83,43,19,30.22,29.87,39,14,39,0.00
2014-4-15,64,47,28,26,19,14,70,39,17,30.18,29.81,32,8,32,0.00
2014-4-16,71,56,43,37,25,14,59,31,18,30.04,29.67,42,16,42,0.00
2014-4-17,57,44,35,31,28,25,69,53,31,30.28,30.04,21,7,26,0.00
2014-4-18,71,54,36,43,37,31,84,55,33,30.24,29.99,28,9,31,0.00
2014-4-19,81,67,53,50,45,38,64,46,31,30.01,29.84,33,14,47,0.00
2014-4-20,72,66,61,55,50,48,65,57,51,29.93,29.89,25,11,25,0.00
2014-4-21,78,71,59,54,35,22,60,28,15,30.03,29.91,30,11,30,0.00
2014-4-22,75,62,48,34,29,24,49,30,17,30.08,29.81,27,8,27,0.00
2014-4-23,84,70,57,51,41,31,47,36,22,29.87,29.30,59,17,59,0.00
2014-4-24,74,61,53,55,43,25,92,55,21,29.79,29.38,34,10,34,0.60
2014-4-25,81,65,45,42,37,32,70,39,18,29.83,29.61,36,9,36,0.00
2014-4-26,86,74,61,59,49,37,54,42,35,29.65,29.29,42,15,42,0.00
2014-4-27,78,70,60,64,48,28,86,52,17,29.31,29.02,37,15,45,0.06
2014-4-28,60,50,45,45,38,35,84,64,49,29.48,29.15,36,13,37,0.09
2014-4-29,46,43,40,39,37,35,87,78,69,29.94,29.48,29,14,35,0.26
2014-4-30,55,48,41,36,29,20,77,51,25,30.03,29.94,30,12,39,0.00
2014-5-1,62,52,40,34,29,22,68,44,21,30.01,29.92,23,9,31,0.00
2014-5-2,75,57,37,36,30,20,77,42,15,29.99,29.75,26,4,26,0.00
2014-5-3,86,67,50,46,39,31,63,39,20,29.85,29.70,21,7,21,0.00
2014-5-4,96,75,60,50,41,34,54,32,12,29.73,29.47,21,5,21,0.00
2014-5-5,80,68,53,51,48,42,76,51,29,29.62,29.52,22,7,22,0.00
2014-5-6,99,76,54,59,48,27,79,45,8,29.61,29.28,37,8,37,0.00
2014-5-7,96,81,69,63,56,42,73,47,17,29.50,29.35,49,15,49,0.00
2014-5-8,75,70,56,63,51,37,77,53,27,29.74,29.46,33,12,33,0.00
2014-5-9,76,61,47,44,39,34,70,47,26,29.89,29.71,23,6,23,0.00
2014-5-10,88,74,62,60,49,42,69,45,20,29.73,29.55,23,7,23,0.00
2014-5-11,89,77,67,66,61,53,91,60,30,29.58,29.33,56,16,56,0.06
2014-5-12,67,52,47,64,46,37,93,80,66,30.10,29.50,29,11,29,0.18
2014-5-13,63,54,46,37,32,24,67,46,25,30.24,30.10,24,9,30,0.07
2014-5-14,68,56,42,39,32,20,78,46,17,30.26,30.06,20,4,20,0.03
2014-5-15,64,54,44,40,30,21,74,44,21,30.17,30.04,25,6,25,0.02
2014-5-16,57,48,41,42,35,29,84,62,35,30.11,29.97,28,6,28,0.08
2014-5-17,64,52,40,40,36,30,89,58,30,30.15,30.05,22,5,22,0.00
2014-5-18,76,63,49,57,46,36,72,56,40,30.09,29.75,34,12,34,0.00
2014-5-19,91,76,65,59,57,53,74,54,29,29.75,29.45,36,16,40,0.00
2014-5-20,95,81,66,59,53,33,74,43,13,29.66,29.55,30,7,30,0.00
2014-5-21,88,77,66,65,61,56,82,59,40,29.87,29.66,22,6,22,0.00
2014-5-22,80,72,63,66,60,55,77,68,50,30.02,29.83,30,9,30,0.06
2014-5-23,71,65,61,64,60,56,92,85,71,30.04,29.95,21,6,21,0.83
2014-5-24,77,69,63,68,63,60,92,84,66,29.97,29.83,19,6,20,0.07
2014-5-25,83,72,66,67,64,61,88,77,53,29.91,29.77,27,8,27,0.05
2014-5-26,82,73,65,65,62,57,92,69,45,29.91,29.80,24,6,24,0.00
2014-5-27,83,73,63,64,61,56,90,68,42,29.89,29.82,19,5,20,0.00
2014-5-28,89,76,65,64,61,58,88,63,37,29.90,29.80,18,4,18,0.00
2014-5-29,87,78,68,66,62,55,85,59,35,29.88,29.78,19,6,19,0.00
2014-5-30,84,77,68,66,63,59,87,65,44,29.92,29.83,22,7,27,0.00
2014-5-31,85,76,66,66,64,60,90,68,44,29.95,29.79,18,6,24,0.00
2014-6-1,88,76,65,67,64,60,91,70,45,29.83,29.53,38,12,38,0.59
2014-6-2,83,71,63,66,63,60,92,78,54,29.92,29.72,20,4,20,0.00
2014-6-3,90,82,71,70,67,63,91,64,45,29.89,29.40,36,10,36,0.00
2014-6-4,96,79,71,68,65,43,85,64,17,29.70,29.35,41,10,41,0.00
2014-6-5,83,74,64,67,63,56,91,69,48,29.89,29.46,51,9,54,1.98
2014-6-6,81,74,67,68,65,62,91,75,55,29.87,29.69,23,6,23,0.00
2014-6-7,78,71,64,69,61,57,91,72,51,29.97,29.63,36,8,36,0.28
2014-6-8,77,67,59,60,58,55,88,72,48,29.99,29.80,21,6,21,0.00
2014-6-9,66,63,61,61,60,58,92,89,75,29.81,29.61,40,10,40,2.00
2014-6-10,80,69,60,61,58,54,92,72,42,29.83,29.74,20,6,20,0.06
2014-6-11,87,74,60,66,60,55,86,64,44,29.79,29.59,24,8,31,0.00
2014-6-12,75,68,64,66,55,47,90,65,40,29.99,29.68,48,8,48,0.31
2014-6-13,80,68,56,56,51,44,81,57,33,30.04,29.77,31,7,31,0.00
2014-6-14,90,78,68,67,62,54,72,59,41,29.77,29.37,47,17,47,0.00
2014-6-15,84,72,60,67,60,56,92,68,40,29.82,29.43,27,6,36,0.92
2014-6-16,90,81,70,71,69,66,91,69,50,29.82,29.53,43,15,43,0.00
2014-6-17,94,87,78,71,68,64,68,54,41,29.62,29.55,37,15,37,0.00
2014-6-18,93,85,77,71,68,65,73,58,41,29.73,29.59,39,14,39,0.00
2014-6-19,90,81,76,70,67,61,77,62,41,29.89,29.68,24,6,24,0.00
2014-6-20,94,83,72,68,64,56,82,56,29,29.94,29.76,29,6,29,0.00
2014-6-21,94,83,71,67,61,55,72,51,28,29.90,29.68,24,8,24,0.00
2014-6-22,94,80,67,67,64,54,90,61,32,29.80,29.60,49,6,49,0.29
2014-6-23,84,74,66,68,64,59,91,74,46,29.92,29.75,22,4,22,0.02
2014-6-24,85,74,66,67,63,59,91,70,43,29.96,29.86,25,3,25,0.00
2014-6-25,87,75,63,67,63,60,88,67,44,29.94,29.80,20,5,20,0.00
2014-6-26,80,75,70,70,66,62,88,76,56,29.86,29.67,22,7,22,0.03
2014-6-27,85,78,72,70,68,67,86,74,56,29.69,29.54,37,13,37,0.00
2014-6-28,82,72,64,69,63,59,92,75,47,29.80,29.58,32,7,32,0.59
2014-6-29,89,78,70,75,69,56,94,74,44,29.82,29.66,39,8,39,0.03
2014-6-30,96,84,73,74,68,59,79,61,40,29.75,29.52,29,10,36,0.00
2014-7-1,87,76,68,64,56,47,82,53,27,29.94,29.74,23,6,23,0.01
2014-7-2,78,73,63,51,47,40,65,40,28,30.12,30.05,27,9,27,0.00
2014-7-3,82,70,56,56,53,50,82,56,36,30.16,30.04,20,6,20,0.00
2014-7-4,85,76,65,64,58,54,72,56,41,30.14,29.96,35,11,35,0.00
2014-7-5,95,84,75,69,66,63,78,57,37,29.98,29.77,33,11,33,0.00
2014-7-6,100,87,76,70,66,59,71,51,28,29.78,29.69,24,6,24,0.00
2014-7-7,102,85,74,70,66,52,84,56,26,29.74,29.52,46,8,46,0.00
2014-7-8,86,77,68,66,58,47,91,56,27,29.96,29.74,23,6,27,0.21
2014-7-9,90,78,64,61,58,53,84,53,31,30.00,29.81,22,5,22,0.00
2014-7-10,83,73,68,65,62,58,89,70,53,29.93,29.83,28,9,28,0.03
2014-7-12,95,86,74,66,64,60,68,48,31,29.91,29.80,26,9,26,0.00
2014-7-13,88,80,72,71,66,59,89,64,38,29.95,29.83,21,6,21,0.09
2014-7-14,83,75,66,65,59,48,83,59,31,30.09,29.88,26,7,26,0.01
2014-7-15,79,68,57,51,48,42,75,50,29,30.13,29.96,21,6,21,0.00
2014-7-16,76,68,62,59,54,50,72,62,46,30.01,29.92,26,5,26,0.00
2014-7-17,69,66,64,62,58,55,86,77,62,30.01,29.95,12,2,12,0.07
2014-7-18,78,69,63,60,57,53,87,67,46,30.01,29.89,25,7,25,0.00
2014-7-19,85,73,62,64,60,56,86,65,45,29.94,29.81,22,8,22,0.00
2014-7-20,93,80,68,72,66,62,81,64,45,29.84,29.69,29,11,29,0.00
2014-7-21,101,87,75,72,69,62,84,58,30,29.84,29.75,28,10,28,0.00
2014-7-22,103,90,76,73,68,52,83,52,21,29.96,29.83,20,5,20,0.00
2014-7-23,89,80,71,76,65,58,82,62,36,30.11,29.96,30,8,30,0.02
2014-7-24,92,80,67,68,64,62,83,60,41,30.03,29.77,32,10,32,0.00
2014-7-25,104,90,77,70,65,54,72,48,25,29.79,29.59,33,11,33,0.00
2014-7-26,104,90,80,74,61,56,64,40,24,29.76,29.64,26,6,26,0.00
2014-7-27,91,83,76,76,60,40,85,52,19,30.07,29.76,22,7,22,0.00
2014-7-28,86,75,64,57,55,50,75,51,31,30.21,30.05,18,6,18,0.00
2014-7-29,82,74,65,59,56,52,73,55,38,30.11,29.96,24,6,24,0.00
2014-7-30,76,70,64,63,58,55,90,68,50,30.06,29.98,23,5,23,0.03
2014-7-31,86,71,58,60,54,46,89,59,27,30.07,29.92,10,2,13,0.00
2014-8-1,90,77,64,60,54,40,76,49,20,29.97,29.90,28,6,28,0.00
2014-8-2,92,78,62,64,58,51,92,55,27,30.04,29.93,16,4,16,0.00
2014-8-3,93,82,70,64,61,55,75,51,28,30.01,29.86,24,6,24,0.00
2014-8-4,96,83,72,62,58,54,65,45,26,29.98,29.84,18,5,18,0.00
2014-8-5,96,84,73,62,58,50,66,44,22,29.94,29.82,26,7,26,0.00
2014-8-6,94,83,73,68,64,59,75,54,35,29.85,29.65,25,7,25,0.00
2014-8-7,88,77,70,68,67,64,92,73,48,29.85,29.75,17,4,18,0.00
2014-8-8,95,81,72,70,65,59,85,62,32,29.88,29.76,20,4,21,0.00
2014-8-9,94,82,69,69,66,62,86,62,35,29.92,29.77,21,7,29,0.03
2014-8-10,84,75,66,67,64,61,93,71,47,29.99,29.80,36,6,36,0.86
2014-8-11,84,76,69,67,59,46,88,60,28,30.07,29.98,25,7,25,0.00
2014-8-12,84,72,60,57,54,49,84,55,31,30.11,29.97,14,4,14,0.00
2014-8-13,88,76,62,60,55,53,75,52,31,30.07,29.92,15,5,18,0.00
2014-8-14,91,79,67,65,60,57,75,54,36,29.96,29.79,25,9,25,0.00
2014-8-15,84,79,74,70,66,61,81,66,47,29.82,29.67,23,6,23,0.31
2014-8-16,90,80,70,71,68,64,89,69,45,29.82,29.69,17,4,17,0.05
2014-8-17,92,80,68,69,66,58,88,66,41,29.95,29.74,47,5,47,0.20
2014-8-18,93,79,66,69,65,60,86,65,40,29.95,29.65,24,5,27,0.02
2014-8-19,97,83,69,70,62,52,75,53,23,29.76,29.62,38,6,38,0.00
2014-8-20,90,80,75,69,66,64,73,63,47,29.71,29.67,30,8,30,0.00
2014-8-21,99,93,81,69,65,62,61,41,30,29.80,29.66,31,12,31,0.00
2014-8-22,97,86,78,74,68,66,73,56,38,29.80,29.69,32,8,32,0.02
2014-8-23,100,88,76,69,58,45,63,40,18,29.76,29.63,30,9,30,0.00
2014-8-24,100,87,78,69,59,55,63,40,24,29.75,29.63,29,10,30,0.04
2014-8-25,99,85,74,68,64,58,69,51,26,29.93,29.74,27,6,27,0.00
2014-8-26,91,79,68,67,64,59,77,61,39,30.02,29.84,31,8,31,0.11
2014-8-27,88,81,75,68,66,62,76,60,43,30.00,29.83,18,4,18,0.00
2014-8-28,83,78,72,70,66,63,89,70,55,29.84,29.70,24,8,24,0.10
2014-8-29,87,77,68,65,61,54,87,61,34,29.79,29.69,24,6,24,0.01
2014-8-30,92,79,65,65,60,52,87,57,26,29.87,29.74,16,4,16,0.00
2014-8-31,98,80,66,66,63,52,90,60,27,29.76,29.44,37,10,46,1.49
2014-9-1,78,71,63,67,64,60,92,79,63,29.83,29.63,24,4,26,0.14
2014-9-2,86,77,65,69,65,60,89,69,48,29.93,29.80,18,5,19,0.00
2014-9-3,95,82,70,72,68,65,88,65,38,29.84,29.61,35,12,38,0.00
2014-9-4,96,86,77,67,64,58,66,50,29,29.81,29.66,34,11,34,0.00
2014-9-5,83,66,60,68,56,50,85,70,49,30.22,29.81,29,9,30,0.00
2014-9-6,74,65,56,57,49,38,90,62,29,30.26,30.15,16,5,19,0.00
2014-9-7,79,67,52,53,50,44,88,59,31,30.17,29.95,18,4,19,0.00
2014-9-8,91,76,62,67,61,52,84,61,41,29.98,29.70,31,10,31,0.00
2014-9-9,97,85,75,69,65,58,77,54,31,29.75,29.40,39,12,41,0.01
2014-9-10,76,68,61,69,60,52,92,78,60,30.00,29.50,30,10,30,0.48
2014-9-11,61,57,54,52,50,48,84,77,69,30.23,30.00,16,9,22,0.00
2014-9-12,56,51,46,49,44,40,91,78,64,30.42,30.23,23,9,25,0.07
2014-9-13,64,52,38,46,40,36,93,67,37,30.42,30.17,17,4,22,0.00
2014-9-14,77,64,50,60,52,45,85,66,50,30.19,29.88,24,8,24,0.00
2014-9-15,72,67,58,62,57,50,86,71,50,30.19,29.88,24,7,25,0.00
2014-9-16,78,62,49,61,52,46,90,71,45,30.20,29.90,16,5,18,0.00
2014-9-17,84,74,66,68,65,61,92,76,56,29.90,29.74,20,7,21,0.00
2014-9-18,85,72,63,66,63,57,91,75,41,29.92,29.77,40,9,43,0.83
2014-9-19,90,76,64,68,64,60,90,69,41,29.90,29.77,21,7,24,0.00
2014-9-20,90,78,68,69,65,63,86,68,41,29.96,29.81,21,6,23,0.02
2014-9-21,78,70,60,67,48,37,87,51,23,30.21,29.94,21,6,21,0.00
2014-9-22,76,64,50,51,47,43,85,56,31,30.28,30.10,18,4,21,0.00
2014-9-23,76,66,58,59,54,50,90,68,48,30.16,29.95,23,10,29,0.35
2014-9-24,75,67,60,63,58,53,91,74,62,30.08,29.99,24,9,30,0.49
2014-9-25,86,72,62,63,57,53,79,61,40,30.11,30.00,17,6,18,0.00
2014-9-26,84,71,60,58,54,48,80,57,31,30.07,29.97,18,6,19,0.00
2014-9-27,83,72,64,58,56,53,75,58,37,30.03,29.92,25,9,25,0.00
2014-9-28,84,72,62,61,57,54,82,61,38,30.04,29.96,17,5,18,0.00
2014-9-29,84,72,59,62,57,52,89,61,34,30.01,29.81,19,5,19,0.00
2014-9-30,83,72,65,67,61,57,91,70,46,29.85,29.56,28,7,29,0.43
2014-10-1,81,72,65,66,64,61,92,75,60,29.69,29.59,16,5,18,0.21
2014-10-2,68,62,54,63,55,49,92,80,59,29.91,29.60,26,7,27,0.04
2014-10-3,59,52,45,49,35,25,88,57,27,30.27,29.90,36,10,40,0.03
2014-10-4,63,50,39,40,33,26,73,53,27,30.16,29.81,12,3,12,0.00
2014-10-5,76,61,47,48,43,39,79,54,27,29.83,29.73,19,4,22,0.00
2014-10-6,79,64,52,52,47,40,79,56,26,29.81,29.60,17,4,20,0.00
2014-10-7,81,68,58,54,48,44,76,51,28,29.94,29.66,16,3,16,0.00
2014-10-8,75,64,55,54,46,36,81,53,35,30.02,29.85,25,7,25,0.00
2014-10-9,64,60,55,60,55,51,92,85,64,30.00,29.79,29,7,29,0.32
2014-10-10,56,49,44,53,43,36,90,80,63,30.20,29.96,27,9,29,0.43
2014-10-11,62,50,39,43,39,34,89,67,39,30.22,29.96,13,3,13,0.00
2014-10-12,66,55,45,53,46,40,89,72,53,29.97,29.60,27,7,27,0.06
2014-10-13,64,56,52,53,46,36,93,72,38,29.84,29.64,40,12,40,0.47
2014-10-14,68,57,48,40,37,32,66,49,27,30.00,29.83,30,9,30,0.00
2014-10-15,74,56,39,46,40,35,85,59,30,30.08,29.84,15,3,15,0.00
2014-10-16,79,64,54,50,46,41,69,53,28,29.84,29.68,18,6,18,0.00
2014-10-17,68,57,47,45,42,39,73,59,39,30.11,29.83,20,5,20,0.00
2014-10-18,63,52,42,43,40,38,86,65,41,30.24,30.11,13,4,13,0.00
2014-10-19,72,57,46,51,46,41,84,68,44,30.13,29.93,25,5,25,0.00
2014-10-20,77,62,47,54,47,40,92,65,27,30.04,29.96,15,2,15,0.00
2014-10-21,78,62,46,58,50,42,89,68,40,30.06,29.91,21,5,21,0.00
2014-10-22,78,67,58,59,55,49,89,68,37,30.01,29.92,37,8,37,0.04
2014-10-23,76,67,62,60,58,55,85,74,49,30.03,29.93,12,4,14,0.01
2014-10-24,84,68,58,64,59,56,92,75,45,29.98,29.86,19,6,19,0.00
2014-10-25,91,71,56,63,57,50,93,67,26,30.00,29.84,16,3,16,0.00
2014-10-26,89,75,64,59,54,46,76,51,26,29.84,29.46,33,9,33,0.00
2014-10-27,72,65,57,56,45,36,75,50,31,29.97,29.42,35,9,35,0.00
2014-10-28,67,55,43,40,34,27,79,48,23,30.14,29.96,22,3,22,0.00
2014-10-29,71,53,37,37,33,29,80,50,26,30.23,29.98,19,5,19,0.00
2014-10-30,70,58,46,39,35,31,67,44,24,30.29,29.93,32,10,32,0.00
2014-10-31,46,40,32,37,22,12,73,51,25,30.53,30.29,20,9,28,0.00
2014-11-1,54,43,31,21,16,10,63,35,17,30.43,30.09,34,12,34,0.00
2014-11-2,63,55,47,47,35,20,67,47,30,30.09,29.82,46,17,46,0.00
2014-11-3,68,58,47,56,46,36,76,65,49,30.10,29.78,36,13,36,0.00
2014-11-4,56,47,41,37,35,30,76,63,40,30.25,30.09,19,5,22,0.00
2014-11-5,71,53,36,35,31,28,75,48,21,30.23,30.05,24,6,24,0.00
2014-11-6,58,49,42,33,27,20,59,44,25,30.41,30.20,21,6,21,0.00
2014-11-7,73,56,42,39,32,24,54,40,24,30.20,29.74,38,10,38,0.00
2014-11-8,60,49,42,40,30,22,69,49,27,30.25,29.98,21,8,26,0.00
2014-11-9,68,53,43,43,35,26,68,51,35,29.98,29.49,22,7,22,0.00
2014-11-10,67,48,27,44,35,15,71,61,39,29.99,29.28,43,14,43,0.00
2014-11-11,29,24,19,18,9,1,72,53,31,30.53,29.98,37,15,40,0.00
2014-11-12,24,20,15,8,2,-4,62,46,30,30.67,30.53,26,11,26,0.00
2014-11-13,29,20,12,8,5,3,68,53,35,30.71,30.53,15,6,19,0.00
2014-11-14,36,26,18,11,8,3,66,47,27,30.53,30.25,17,5,19,0.00
2014-11-15,34,29,20,24,18,10,87,65,48,30.29,30.06,32,9,32,0.00
2014-11-16,31,22,14,14,7,1,82,54,32,30.31,30.14,26,8,26,0.00
2014-11-17,28,22,15,10,5,-1,67,49,35,30.41,30.29,30,8,30,0.00
2014-11-18,50,29,8,26,12,2,74,54,22,30.41,29.97,24,6,24,0.00
2014-11-19,43,36,27,23,18,14,58,47,32,30.19,29.98,26,6,26,0.00
2014-11-20,46,32,20,21,16,12,72,54,35,30.22,30.11,14,5,18,0.00
2014-11-21,41,32,23,39,26,15,94,79,64,30.22,30.03,11,4,11,0.00
2014-11-22,59,50,40,54,46,39,94,88,80,30.04,29.53,33,10,33,0.00
2014-11-23,56,48,42,52,42,23,93,78,45,29.65,29.40,44,10,44,0.11
2014-11-24,47,40,29,24,19,14,60,45,28,30.18,29.64,35,9,35,0.00
2014-11-25,51,37,22,29,20,14,73,52,28,30.23,29.91,28,7,28,0.00
2014-11-26,46,39,28,31,24,18,67,54,45,30.48,29.91,39,11,39,0.00
2014-11-27,45,32,21,22,16,12,78,54,27,30.55,30.08,24,7,24,0.00
2014-11-28,69,49,36,38,30,22,70,50,26,30.08,29.65,26,8,26,0.00
2014-11-29,71,54,40,39,34,26,88,54,19,29.65,29.48,19,5,19,0.00
2014-11-30,52,27,19,37,11,-2,76,51,30,30.53,29.48,32,14,32,0.00
2014-12-1,28,21,0,0,-3,-6,43,34,23,30.75,30.46,30,7,30,0.00
2014-12-2,46,27,0,12,5,-1,51,40,20,30.46,30.02,28,6,28,0.00
2014-12-3,44,35,28,14,12,9,53,39,25,30.37,30.14,24,6,24,0.00
2014-12-4,48,38,34,31,21,14,58,50,44,30.21,30.05,12,4,13,0.00